North Bennington, VT

3:41 PM EST on January 18, 2017 (GMT -0500)
Morse State

Weather History for KDDH - January, 2014

Change the Weather History Date:

Sunday, January 19, 2014

  Actual Average Record
Temperature  
Mean Temperature 26 °F 21 °F  
Max Temperature 31 °F 30 °F 35 °F (2015)
Min Temperature 21 °F 11 °F 9 °F (2016)
Degree Days  
Heating Degree Days 39 44  
Month to date heating degree days 775 832  
Since 1 July heating degree days 3438 3604  
Cooling Degree Days 0 0  
Month to date cooling degree days 0 0  
Year to date cooling degree days 0 0  
Moisture  
Dew Point 17 °F    
Average Humidity 71    
Maximum Humidity 84    
Minimum Humidity 58    
Precipitation  
Precipitation 0.03 in 0.08 in 0.00 in (2017)
Month to date precipitation 2.82 1.84  
Year to date precipitation 2.82 1.84  
Sea Level Pressure  
Sea Level Pressure 29.63 in    
Wind  
Wind Speed 6 mph (SW)    
Max Wind Speed 16 mph    
Max Gust Speed 30 mph    
Visibility 6 miles    
Events Snow    
T = Trace of Precipitation, MM = Missing Value Source: NWS Daily Summary

Daily Weather History Graph

Daily Weather History Graph

Search for Another Location

Airport or City:

Trip Planner

Search our weather history database for the weather conditions in past years. The results will help you decide how hot, cold, wet, or windy it might be!

Date:

Astronomy

Jan. 19, 2014 Rise Set
Actual Time 7:18 AM EST 4:49 PM EST
Civil Twilight 6:47 AM EST 5:20 PM EST
Nautical Twilight 6:13 AM EST 5:54 PM EST
Astronomical Twilight 5:39 AM EST 6:28 PM EST
Moon 8:30 PM EST (1/19) 8:41 AM EST (1/19)
Length of Visible Light 10h 32m
Length of Day
9h 30m
Waning Gibbous, 89% of the Moon is Illuminated
Jan 19
Waning Gibbous
Jan 24
Last Quarter
Jan 30
New
Feb 6
First Quarter
Feb 14
Full

Hourly Weather History & Observations

Time (EST) Temp. Windchill Dew Point Humidity Pressure Visibility Wind Dir Wind Speed Gust Speed Precip Events Conditions
12:54 AM 24.1 °F 17.0 °F 18.0 °F 77% 29.77 in 10.0 mi SW 5.8 mph - N/A   Overcast
1:54 AM 23.0 °F 18.4 °F 17.1 °F 78% 29.76 in 10.0 mi WSW 3.5 mph - N/A   Overcast
2:54 AM 23.0 °F 18.4 °F 17.1 °F 78% 29.75 in 10.0 mi NW 3.5 mph - N/A   Overcast
3:54 AM 21.9 °F - 17.1 °F 82% 29.75 in 9.0 mi Calm Calm - N/A   Overcast
4:54 AM 23.0 °F 17.0 °F 17.1 °F 78% 29.74 in 9.0 mi SW 4.6 mph - N/A   Overcast
5:54 AM 21.9 °F 13.4 °F 15.1 °F 75% 29.73 in 10.0 mi SW 6.9 mph - N/A   Overcast
6:54 AM 21.9 °F 17.2 °F 14.0 °F 72% 29.72 in 3.0 mi WSW 3.5 mph - 0.00 in Snow Light Snow
7:01 AM 21.2 °F 16.4 °F 15.8 °F 80% 29.68 in 2.0 mi WSW 3.5 mph - 0.00 in Snow Light Snow
7:09 AM 21.2 °F 11.7 °F 15.8 °F 80% 29.68 in 1.2 mi WSW 8.1 mph - 0.00 in Snow Light Snow
7:19 AM 21.2 °F 13.6 °F 15.8 °F 80% 29.68 in 1.0 mi Variable 5.8 mph - 0.01 in Snow Light Snow
7:33 AM 21.2 °F 16.4 °F 15.8 °F 80% 29.68 in 1.5 mi Variable 3.5 mph - 0.01 in Snow Light Snow
7:54 AM 21.0 °F - 16.0 °F 81% 29.70 in 1.0 mi Calm Calm - 0.02 in Snow Light Snow
8:21 AM 21.2 °F - 15.8 °F 80% 29.66 in 2.5 mi Calm Calm - 0.00 in Snow Light Snow
8:29 AM 21.2 °F - 15.8 °F 80% 29.67 in 3.0 mi Calm Calm - 0.00 in   Haze
8:46 AM 21.2 °F - 17.6 °F 86% 29.66 in 1.8 mi Calm Calm - 0.00 in Snow Light Snow
8:54 AM 21.9 °F - 17.1 °F 82% 29.70 in 1.2 mi Calm Calm - 0.00 in Snow Light Snow
9:34 AM 21.2 °F 14.9 °F 15.8 °F 80% 29.66 in 0.8 mi WNW 4.6 mph - 0.00 in Snow Light Snow
9:43 AM 21.2 °F 12.6 °F 15.8 °F 80% 29.66 in 1.2 mi WSW 6.9 mph - 0.00 in Snow Light Snow
9:54 AM 21.9 °F 17.2 °F 17.1 °F 82% 29.69 in 1.5 mi Variable 3.5 mph - 0.00 in Snow Light Snow
10:52 AM 24.8 °F 19.1 °F 17.6 °F 74% 29.62 in 2.0 mi South 4.6 mph - 0.01 in Snow Light Snow
10:54 AM 24.1 °F 18.2 °F 18.0 °F 77% 29.65 in 2.0 mi South 4.6 mph - 0.01 in Snow Light Snow
11:15 AM 24.8 °F 19.1 °F 17.6 °F 74% 29.60 in 1.8 mi Variable 4.6 mph - 0.00 in Snow Light Snow
11:19 AM 24.8 °F 19.1 °F 17.6 °F 74% 29.60 in 2.0 mi SW 4.6 mph - 0.00 in Snow Light Snow
11:26 AM 24.8 °F 16.9 °F 17.6 °F 74% 29.59 in 2.5 mi SW 6.9 mph - 0.00 in Snow Light Snow
11:38 AM 24.8 °F 16.9 °F 19.4 °F 80% 29.58 in 1.2 mi SW 6.9 mph - 0.00 in Snow Light Snow
11:46 AM 26.6 °F 17.5 °F 17.6 °F 69% 29.57 in 3.0 mi SW 9.2 mph - 0.00 in Snow Light Snow
11:54 AM 26.1 °F 16.2 °F 17.1 °F 69% 29.59 in 6.0 mi SW 10.4 mph 17.3 mph 0.00 in   Haze
12:54 PM 27.0 °F 16.7 °F 16.0 °F 63% 29.55 in 10.0 mi SSW 11.5 mph - N/A   Overcast
1:13 PM 26.6 °F 17.5 °F 15.8 °F 64% 29.52 in 10.0 mi SW 9.2 mph - N/A   Overcast
1:54 PM 27.0 °F 19.5 °F 16.0 °F 63% 29.54 in 10.0 mi SW 6.9 mph 16.1 mph N/A   Overcast
2:54 PM 28.0 °F 20.0 °F 16.0 °F 61% 29.52 in 10.0 mi WSW 8.1 mph - N/A   Overcast
3:54 PM 28.9 °F 20.4 °F 16.0 °F 58% 29.52 in 10.0 mi SW 9.2 mph - N/A   Mostly Cloudy
4:54 PM 28.0 °F 20.0 °F 16.0 °F 61% 29.51 in 10.0 mi SSW 8.1 mph - N/A   Overcast
5:54 PM 28.9 °F 19.8 °F 16.0 °F 58% 29.53 in 10.0 mi SSW 10.4 mph - N/A   Overcast
6:54 PM 28.9 °F 20.4 °F 16.0 °F 58% 29.55 in 10.0 mi SW 9.2 mph - N/A   Overcast
7:54 PM 28.9 °F 21.1 °F 16.0 °F 58% 29.55 in 10.0 mi SW 8.1 mph - N/A   Overcast
8:54 PM 28.9 °F 20.4 °F 17.1 °F 61% 29.55 in 10.0 mi SSW 9.2 mph - N/A   Overcast
9:54 PM 30.0 °F 26.5 °F 18.0 °F 61% 29.54 in 10.0 mi Variable 3.5 mph - N/A   Overcast
10:54 PM 30.9 °F 25.2 °F 18.0 °F 59% 29.53 in 10.0 mi SSW 5.8 mph - N/A   Overcast
11:54 PM 30.0 °F 23.2 °F 19.0 °F 64% 29.53 in 10.0 mi SSW 6.9 mph - N/A   Overcast